map of ASB home
Great Circle Mapper logo
ASB - Airport
Location
City:  Ashgabat, Ahal, Turkmenistan
Near (Alt.):Ashkhabad
Name:Ashgabat Airport
Old (Alt.):Saparmurat Turkmenbashy International Airport
ICAO / IATA:UTAA / ASB

Details
Type:Airport (Aerodrome, Airfield)
Use:Public/Civil, International (customs port of entry)
Latitude:3759'13"N (37.986814)
Longitude:5821'39"E (58.360967)
Elevation:692 ft (211 m)
Variation:4.85E (WMM2015 magnetic declination)
0.06 annual change
Runways:3
Longest:12467 × 151 ft (3800 × 46 m), paved

Time
Time Zone:UTC+5
Local Time:

Weather
METAR:UTAA 210100Z 26002MPS 9999 SKC 19/04 Q1008 R30/CLRD70 NOSIG
TAF:UTAA 201330Z 2014/2103 13006G11MPS 5000 SCT100 530007
TEMPO 2016/2021 20007MPS 3000 HZ
TEMPO 2021/2103 25008MPS

Related Locations
Nearby:
Farthest:IPC: 11407 mi / 18358 km
Easter Island (Isla de Pascua, Rapa Nui) [Mataveri Intl], VS, CL

Find:

   beyond  
but within

Other Information
Maps:
NOTAMs:
Links:
Sources:

  
flag of Turkmenistan   

Sectional Chart

Flight Planning
at skyvector.com

Satellite Image

Google Maps Satellite View

 

Copyright © 2004-2015 Karl L. Swartz. All rights reserved.
The Great Circle Mapper name and logo are trademarks of the Great Circle Mapper.
All other trademarks mentioned herein belong to their respective owners.
Please see credits for attibutions and further copyright information.

  Follow gcmap on Facebook Follow gcmap on Twitter Follow gcmap on Google+

hCard Microformat

Geo Microformat